Tracking 19475 objects as of 18-Jan-2019
HD Live streaming from Space Station
objects crossing your sky now

BANXING-2

Track BANXING-2 now!
10-day predictions


NORAD ID: 41834
Int'l Code: 2016-057H
Perigee: 305.1 km
Apogee: 321.6 km
Inclination: 42.8 °
Period: 90.6 minutes
Semi major axis: 6684 km
RCS: Unknown
Launch date: September 15, 2016
Source: People's Republic of China (PRC)
Launch site: Jiuquan Satellite Launch Center, China (JSC)
aabbcc
Your satellite tracking list
Your tracking list is empty




NASA's NSSDC Master Catalog

Two Line Element Set (TLE):
1 41834U 16057H   19018.46838620  .00027081  84601-5  10172-3 0  9991
2 41834  42.7789  48.7190 0012341  69.1022  71.9084 15.88597431128718
Source of the keplerian elements: AFSPC